"Period start","avg(HW err(1)/warn(2) (#))","avg(Visibility (m))","avg(Weather code (#))","avg(Precip intensity (mm/h))","min(HW err(1)/warn(2) (#))","max(HW err(1)/warn(2) (#))","std(HW err(1)/warn(2) (#))","med(HW err(1)/warn(2) (#))","min(Visibility (m))","max(Visibility (m))","std(Visibility (m))","med(Visibility (m))","min(Weather code (#))","max(Weather code (#))","std(Weather code (#))","med(Weather code (#))","min(Precip intensity (mm/h))","max(Precip intensity (mm/h))","std(Precip intensity (mm/h))","med(Precip intensity (mm/h))"
2014-12-28 00:00:00,2,50000,0,0.00,2,2,0,2,50000,50000,0,50000,0,0,0,0,0.00,0.00,0.00,0.00
2014-12-28 00:10:00,2,50000,0,0.00,2,2,0,2,50000,50000,0,50000,0,0,0,0,0.00,0.00,0.00,0.00
2014-12-28 00:20:00,2,50000,0,0.00,2,2,0,2,50000,50000,0,50000,0,0,0,0,0.00,0.00,0.00,0.00
2014-12-28 00:30:00,2,50000,0,0.00,2,2,0,2,50000,50000,0,50000,0,0,0,0,0.00,0.00,0.00,0.00
2014-12-28 00:40:00,2,50000,0,0.00,2,2,0,2,50000,50000,0,50000,0,0,0,0,0.00,0.00,0.00,0.00
2014-12-28 00:50:00,2,50000,0,0.00,2,2,0,2,50000,50000,0,50000,0,0,0,0,0.00,0.00,0.00,0.00
2014-12-28 01:00:00,2,50000,0,0.00,2,2,0,2,50000,50000,0,50000,0,0,0,0,0.00,0.00,0.00,0.00
2014-12-28 01:10:00,2,50000,0,0.00,2,2,0,2,50000,50000,0,50000,0,0,0,0,0.00,0.00,0.00,0.00
2014-12-28 01:20:00,2,50000,0,0.00,2,2,0,2,50000,50000,0,50000,0,0,0,0,0.00,0.00,0.00,0.00
2014-12-28 01:30:00,2,50000,0,0.00,2,2,0,2,50000,50000,0,50000,0,0,0,0,0.00,0.00,0.00,0.00
2014-12-28 01:40:00,2,50000,0,0.00,2,2,0,2,50000,50000,0,50000,0,0,0,0,0.00,0.00,0.00,0.00
2014-12-28 01:50:00,2,50000,0,0.00,2,2,0,2,50000,50000,0,50000,0,0,0,0,0.00,0.00,0.00,0.00
2014-12-28 02:00:00,2,50000,0,0.00,2,2,0,2,50000,50000,0,50000,0,0,0,0,0.00,0.00,0.00,0.00
2014-12-28 02:10:00,2,50000,0,0.00,2,2,0,2,50000,50000,0,50000,0,0,0,0,0.00,0.00,0.00,0.00
2014-12-28 02:20:00,2,50000,0,0.00,2,2,0,2,50000,50000,0,50000,0,0,0,0,0.00,0.00,0.00,0.00
2014-12-28 02:30:00,2,50000,0,0.00,2,2,0,2,50000,50000,0,50000,0,0,0,0,0.00,0.00,0.00,0.00
2014-12-28 02:40:00,2,50000,0,0.00,2,2,0,2,50000,50000,0,50000,0,0,0,0,0.00,0.00,0.00,0.00
2014-12-28 02:50:00,2,50000,0,0.00,2,2,0,2,50000,50000,0,50000,0,0,0,0,0.00,0.00,0.00,0.00
2014-12-28 03:00:00,2,50000,0,0.00,2,2,0,2,50000,50000,0,50000,0,0,0,0,0.00,0.00,0.00,0.00
2014-12-28 03:10:00,2,50000,0,0.00,2,2,0,2,50000,50000,0,50000,0,0,0,0,0.00,0.00,0.00,0.00
2014-12-28 03:20:00,2,50000,0,0.00,2,2,0,2,50000,50000,0,50000,0,0,0,0,0.00,0.00,0.00,0.00
2014-12-28 03:30:00,2,50000,0,0.00,2,2,0,2,50000,50000,0,50000,0,0,0,0,0.00,0.00,0.00,0.00
2014-12-28 03:40:00,2,50000,0,0.00,2,2,0,2,50000,50000,0,50000,0,0,0,0,0.00,0.00,0.00,0.00
2014-12-28 03:50:00,2,50000,0,0.00,2,2,0,2,50000,50000,0,50000,0,0,0,0,0.00,0.00,0.00,0.00
2014-12-28 04:00:00,2,50000,0,0.00,2,2,0,2,50000,50000,0,50000,0,0,0,0,0.00,0.00,0.00,0.00
2014-12-28 04:10:00,2,50000,0,0.00,2,2,0,2,50000,50000,0,50000,0,0,0,0,0.00,0.00,0.00,0.00
2014-12-28 04:20:00,2,50000,0,0.00,2,2,0,2,50000,50000,0,50000,0,0,0,0,0.00,0.00,0.00,0.00
2014-12-28 04:30:00,2,50000,0,0.00,2,2,0,2,50000,50000,0,50000,0,0,0,0,0.00,0.00,0.00,0.00
2014-12-28 04:40:00,2,50000,0,0.00,2,2,0,2,50000,50000,0,50000,0,0,0,0,0.00,0.00,0.00,0.00
2014-12-28 04:50:00,2,50000,0,0.00,2,2,0,2,50000,50000,0,50000,0,0,0,0,0.00,0.00,0.00,0.00
2014-12-28 05:00:00,2,49885,0,0.00,2,2,0,2,48849,50000,345,50000,0,0,0,0,0.00,0.00,0.00,0.00
2014-12-28 05:10:00,2,50000,0,0.00,2,2,0,2,50000,50000,0,50000,0,0,0,0,0.00,0.00,0.00,0.00
2014-12-28 05:20:00,2,50000,0,0.00,2,2,0,2,50000,50000,0,50000,0,0,0,0,0.00,0.00,0.00,0.00
2014-12-28 05:30:00,2,49403,0,0.00,2,2,0,2,46865,50000,1013,50000,0,0,0,0,0.00,0.00,0.00,0.00
2014-12-28 05:40:00,2,49087,0,0.00,2,2,0,2,43080,50000,2108,50000,0,0,0,0,0.00,0.00,0.00,0.00
2014-12-28 05:50:00,2,46221,0,0.00,2,2,0,2,30939,50000,6108,49850,0,0,0,0,0.00,0.00,0.00,0.00
2014-12-28 06:00:00,2,30268,0,0.00,2,2,0,2,25406,36221,3388,29939,0,0,0,0,0.00,0.00,0.00,0.00
2014-12-28 06:10:00,2,41755,0,0.00,2,2,0,2,24413,50000,8978,44984,0,0,0,0,0.00,0.00,0.00,0.00
2014-12-28 06:20:00,2,49468,0,0.00,2,2,0,2,45653,50000,1304,50000,0,0,0,0,0.00,0.00,0.00,0.00
2014-12-28 06:30:00,2,50000,0,0.00,2,2,0,2,50000,50000,0,50000,0,0,0,0,0.00,0.00,0.00,0.00
2014-12-28 06:40:00,2,50000,0,0.00,2,2,0,2,50000,50000,0,50000,0,0,0,0,0.00,0.00,0.00,0.00
2014-12-28 06:50:00,2,49992,0,0.00,2,2,0,2,49920,50000,24,50000,0,0,0,0,0.00,0.00,0.00,0.00
2014-12-28 07:00:00,2,35305,0,0.00,2,2,0,2,23061,49339,6564,34826,0,0,0,0,0.00,0.00,0.00,0.00
2014-12-28 07:10:00,2,14075,75,0.07,2,2,0,2,9856,30202,5485,12704,71,77,3,77,0.00,0.20,0.06,0.05
2014-12-28 07:20:00,2,12438,74,0.06,2,2,0,2,6998,20342,4513,11318,71,77,3,74,0.00,0.15,0.06,0.05
2014-12-28 07:30:00,2,7269,73,0.19,2,2,0,2,4651,10024,1757,7746,71,77,3,71,0.05,0.35,0.08,0.20
2014-12-28 07:40:00,2,9900,71,0.16,2,2,0,2,6953,12665,1674,9636,71,71,0,71,0.00,0.40,0.14,0.12
2014-12-28 07:50:00,2,12885,77,0.01,2,2,0,2,10546,15910,1842,12451,77,77,0,77,0.00,0.05,0.02,0.00
2014-12-28 08:00:00,2,22680,77,0.00,2,2,0,2,19360,25292,1951,22702,77,77,0,77,0.00,0.00,0.00,0.00
2014-12-28 08:10:00,2,19331,77,0.02,2,2,0,2,15117,23231,2637,19274,77,77,0,77,0.00,0.05,0.02,0.00
2014-12-28 08:20:00,2,20559,77,0.02,2,2,0,2,15064,26431,3252,20242,77,77,0,77,0.00,0.05,0.02,0.00
2014-12-28 08:30:00,2,31908,76,0.04,2,2,0,2,24751,39176,3851,31092,71,77,2,77,0.00,0.15,0.05,0.05
2014-12-28 08:40:00,2,45918,77,0.01,2,2,0,2,33684,50000,4916,47211,77,78,0,77,0.00,0.15,0.05,0.00
2014-12-28 08:50:00,2,49318,23,0.01,2,2,0,2,45149,50000,1509,50000,0,78,36,0,0.00,0.05,0.02,0.00
2014-12-28 09:00:00,2,28828,43,0.21,2,2,0,2,9558,50000,17469,20813,0,71,35,71,0.00,0.55,0.21,0.17
2014-12-28 09:10:00,2,14957,71,0.39,2,2,0,2,8812,26236,5163,13458,71,71,0,71,0.05,0.65,0.21,0.35
2014-12-28 09:20:00,2,13982,71,0.28,2,2,0,2,9246,21769,4313,11580,71,71,0,71,0.00,0.60,0.18,0.25
2014-12-28 09:30:00,2,17251,71,0.26,2,2,0,2,7522,20605,3767,18714,71,71,0,71,0.05,0.95,0.28,0.12
2014-12-28 09:40:00,2,7511,71,0.82,2,2,0,2,5349,12771,2071,7076,71,71,0,71,0.20,1.50,0.40,0.75
2014-12-28 09:50:00,2,6402,71,1.21,2,2,0,2,2648,10183,2824,7264,71,71,0,71,0.20,3.50,1.09,0.65
2014-12-28 10:00:00,2,3308,71,1.69,2,2,0,2,2788,4308,426,3210,71,71,0,71,0.85,2.70,0.55,1.60
2014-12-28 10:10:00,2,8944,71,0.59,2,2,0,2,3525,12589,2642,9556,71,71,0,71,0.15,2.00,0.52,0.38
2014-12-28 10:20:00,2,10954,71,0.88,2,2,0,2,3988,25119,7945,6286,71,71,0,71,0.05,1.85,0.60,0.90
2014-12-28 10:30:00,2,5452,71,1.43,2,2,0,2,2814,10349,2654,4346,71,71,0,71,0.25,2.80,0.84,1.55
2014-12-28 10:40:00,2,21757,71,0.06,2,2,0,2,12299,38124,7715,21244,71,71,0,71,0.00,0.25,0.07,0.05
2014-12-28 10:50:00,2,33067,77,0.02,2,2,0,2,21221,47658,8667,31030,77,78,0,77,0.00,0.05,0.02,0.00
2014-12-28 11:00:00,2,35641,8,0.00,2,2,0,2,23756,49783,7375,35314,0,78,23,0,0.00,0.00,0.00,0.00
2014-12-28 11:10:00,2,50000,0,0.00,2,2,0,2,50000,50000,0,50000,0,0,0,0,0.00,0.00,0.00,0.00
2014-12-28 11:20:00,2,39025,0,0.00,2,2,0,2,8398,50000,14063,43226,0,0,0,0,0.00,0.00,0.00,0.00
2014-12-28 11:30:00,2,37880,0,0.00,2,2,0,2,14372,50000,12972,41966,0,0,0,0,0.00,0.00,0.00,0.00
2014-12-28 11:40:00,2,48028,0,0.00,2,2,0,2,30283,50000,5915,50000,0,0,0,0,0.00,0.00,0.00,0.00
2014-12-28 11:50:00,2,44005,0,0.00,2,2,0,2,20655,50000,10131,50000,0,0,0,0,0.00,0.00,0.00,0.00
2014-12-28 12:00:00,2,50000,0,0.00,2,2,0,2,50000,50000,0,50000,0,0,0,0,0.00,0.00,0.00,0.00
2014-12-28 12:10:00,2,50000,0,0.00,2,2,0,2,50000,50000,0,50000,0,0,0,0,0.00,0.00,0.00,0.00
2014-12-28 12:20:00,2,39162,22,0.00,2,2,0,2,20700,50000,12297,46008,0,77,33,0,0.00,0.00,0.00,0.00
2014-12-28 12:30:00,2,28038,78,0.01,2,2,0,2,7887,49162,14526,30210,77,78,0,78,0.00,0.05,0.02,0.00
2014-12-28 12:40:00,2,9768,78,0.02,2,2,0,2,4720,21266,4924,8940,77,78,0,78,0.00,0.15,0.05,0.00
2014-12-28 12:50:00,2,14002,77,0.02,2,2,0,2,9156,21065,3133,13236,77,77,0,77,0.00,0.05,0.02,0.00
2014-12-28 13:00:00,2,17792,77,0.02,2,2,0,2,8850,33846,7841,19700,77,77,0,77,0.00,0.20,0.06,0.00
2014-12-28 13:10:00,2,29812,74,0.01,2,2,0,2,14927,35127,5821,31173,71,77,3,74,0.00,0.05,0.02,0.00
2014-12-28 13:20:00,2,27382,23,0.00,2,2,0,2,18763,45426,10069,21508,0,77,35,0,0.00,0.00,0.00,0.00
2014-12-28 13:30:00,2,12061,0,0.00,2,2,0,2,9130,15784,2338,11599,0,0,0,0,0.00,0.00,0.00,0.00
2014-12-28 13:40:00,2,14741,0,0.00,2,2,0,2,8103,22690,4417,13855,0,0,0,0,0.00,0.00,0.00,0.00
2014-12-28 13:50:00,2,21628,0,0.00,2,2,0,2,11609,41812,10284,17193,0,0,0,0,0.00,0.00,0.00,0.00
2014-12-28 14:00:00,2,21167,0,0.00,2,2,0,2,9137,36501,8777,19698,0,0,0,0,0.00,0.00,0.00,0.00
2014-12-28 14:10:00,2,34836,0,0.00,2,2,0,2,19357,50000,9222,32358,0,0,0,0,0.00,0.00,0.00,0.00
2014-12-28 14:20:00,2,41287,0,0.00,2,2,0,2,19333,50000,10593,45957,0,0,0,0,0.00,0.00,0.00,0.00
2014-12-28 14:30:00,2,42185,0,0.00,2,2,0,2,17712,50000,12230,49120,0,0,0,0,0.00,0.00,0.00,0.00
2014-12-28 14:40:00,2,26557,0,0.00,2,2,0,2,15073,36365,7619,25635,0,0,0,0,0.00,0.00,0.00,0.00
2014-12-28 14:50:00,2,43592,0,0.00,2,2,0,2,32087,50000,5671,44945,0,0,0,0,0.00,0.00,0.00,0.00
2014-12-28 15:00:00,2,41486,0,0.00,2,2,0,2,22413,50000,10619,47624,0,0,0,0,0.00,0.00,0.00,0.00
2014-12-28 15:10:00,2,50000,0,0.00,2,2,0,2,50000,50000,0,50000,0,0,0,0,0.00,0.00,0.00,0.00
2014-12-28 15:20:00,2,50000,0,0.00,2,2,0,2,50000,50000,0,50000,0,0,0,0,0.00,0.00,0.00,0.00
2014-12-28 15:30:00,2,50000,0,0.00,2,2,0,2,50000,50000,0,50000,0,0,0,0,0.00,0.00,0.00,0.00
2014-12-28 15:40:00,2,49056,0,0.00,2,2,0,2,43910,50000,1943,50000,0,0,0,0,0.00,0.00,0.00,0.00
2014-12-28 15:50:00,2,50000,0,0.00,2,2,0,2,50000,50000,0,50000,0,0,0,0,0.00,0.00,0.00,0.00
2014-12-28 16:00:00,2,50000,0,0.00,2,2,0,2,50000,50000,0,50000,0,0,0,0,0.00,0.00,0.00,0.00
2014-12-28 16:10:00,2,50000,0,0.00,2,2,0,2,50000,50000,0,50000,0,0,0,0,0.00,0.00,0.00,0.00
2014-12-28 16:20:00,2,50000,0,0.00,2,2,0,2,50000,50000,0,50000,0,0,0,0,0.00,0.00,0.00,0.00
2014-12-28 16:30:00,2,49988,0,0.00,2,2,0,2,49881,50000,36,50000,0,0,0,0,0.00,0.00,0.00,0.00
2014-12-28 16:40:00,2,49943,0,0.00,2,2,0,2,49489,50000,152,50000,0,0,0,0,0.00,0.00,0.00,0.00
2014-12-28 16:50:00,2,50000,0,0.00,2,2,0,2,50000,50000,0,50000,0,0,0,0,0.00,0.00,0.00,0.00
2014-12-28 17:00:00,2,45735,0,0.00,2,2,0,2,31198,50000,6833,50000,0,0,0,0,0.00,0.00,0.00,0.00
2014-12-28 17:10:00,2,27082,0,0.00,2,2,0,2,12322,46249,9593,23304,0,0,0,0,0.00,0.00,0.00,0.00
2014-12-28 17:20:00,2,41953,0,0.00,2,2,0,2,23940,50000,10444,49266,0,0,0,0,0.00,0.00,0.00,0.00
2014-12-28 17:30:00,2,49791,0,0.00,2,2,0,2,47908,50000,628,50000,0,0,0,0,0.00,0.00,0.00,0.00
2014-12-28 17:40:00,2,49653,0,0.00,2,2,0,2,47573,50000,760,50000,0,0,0,0,0.00,0.00,0.00,0.00
2014-12-28 17:50:00,2,50000,0,0.00,2,2,0,2,50000,50000,0,50000,0,0,0,0,0.00,0.00,0.00,0.00
2014-12-28 18:00:00,2,50000,0,0.00,2,2,0,2,50000,50000,0,50000,0,0,0,0,0.00,0.00,0.00,0.00
2014-12-28 18:10:00,2,50000,0,0.00,2,2,0,2,50000,50000,0,50000,0,0,0,0,0.00,0.00,0.00,0.00
2014-12-28 18:20:00,2,49985,0,0.00,2,2,0,2,49854,50000,44,50000,0,0,0,0,0.00,0.00,0.00,0.00
2014-12-28 18:30:00,2,50000,0,0.00,2,2,0,2,50000,50000,0,50000,0,0,0,0,0.00,0.00,0.00,0.00
2014-12-28 18:40:00,2,50000,0,0.00,2,2,0,2,50000,50000,0,50000,0,0,0,0,0.00,0.00,0.00,0.00
2014-12-28 18:50:00,2,50000,0,0.00,2,2,0,2,50000,50000,0,50000,0,0,0,0,0.00,0.00,0.00,0.00
2014-12-28 19:00:00,2,50000,0,0.00,2,2,0,2,50000,50000,0,50000,0,0,0,0,0.00,0.00,0.00,0.00
2014-12-28 19:10:00,2,48696,0,0.00,2,2,0,2,39741,50000,3098,50000,0,0,0,0,0.00,0.00,0.00,0.00
2014-12-28 19:20:00,2,29528,36,0.04,2,2,0,2,13751,47427,11699,27926,0,71,36,36,0.00,0.20,0.07,0.00
2014-12-28 19:30:00,2,24558,71,0.10,2,2,0,2,15941,42138,7946,22394,71,71,0,71,0.00,0.35,0.12,0.05
2014-12-28 19:40:00,2,22505,71,0.14,2,2,0,2,12129,35456,7770,19649,71,71,0,71,0.00,0.45,0.14,0.08
2014-12-28 19:50:00,2,11929,71,0.45,2,2,0,2,6793,16694,2732,12262,71,71,0,71,0.10,1.60,0.43,0.33
2014-12-28 20:00:00,2,7153,71,0.77,2,2,0,2,4048,10087,1878,6870,71,71,0,71,0.40,1.40,0.29,0.70
2014-12-28 20:10:00,2,4792,71,1.02,2,2,0,2,3185,6455,946,4866,71,71,0,71,0.50,2.25,0.56,0.82
2014-12-28 20:20:00,2,7301,71,0.65,2,2,0,2,4347,13145,2494,6492,71,71,0,71,0.10,1.15,0.35,0.65
2014-12-28 20:30:00,2,21520,71,0.10,2,2,0,2,13948,28088,5026,21950,71,71,0,71,0.00,0.35,0.12,0.05
2014-12-28 20:40:00,2,24458,71,0.11,2,2,0,2,21302,28443,1951,24092,71,71,0,71,0.00,0.50,0.16,0.03
2014-12-28 20:50:00,2,43829,78,0.00,2,2,0,2,27782,50000,8374,49918,77,78,0,78,0.00,0.00,0.00,0.00
2014-12-28 21:00:00,2,50000,21,0.00,2,2,0,2,50000,50000,0,50000,0,78,35,0,0.00,0.00,0.00,0.00
2014-12-28 21:10:00,2,50000,0,0.00,2,2,0,2,50000,50000,0,50000,0,0,0,0,0.00,0.00,0.00,0.00
2014-12-28 21:20:00,2,48412,0,0.00,2,2,0,2,42762,50000,2399,50000,0,0,0,0,0.00,0.00,0.00,0.00
2014-12-28 21:30:00,2,50000,0,0.00,2,2,0,2,50000,50000,0,50000,0,0,0,0,0.00,0.00,0.00,0.00
2014-12-28 21:40:00,2,49868,0,0.00,2,2,0,2,48679,50000,396,50000,0,0,0,0,0.00,0.00,0.00,0.00
2014-12-28 21:50:00,2,31646,68,0.01,2,2,0,2,19667,40617,6414,32762,0,77,23,77,0.00,0.05,0.02,0.00
2014-12-28 22:00:00,2,46778,78,0.00,2,2,0,2,41230,50000,2833,47014,77,78,0,78,0.00,0.00,0.00,0.00
2014-12-28 22:10:00,2,43253,30,0.00,2,2,0,2,23042,50000,9010,47874,0,78,37,0,0.00,0.00,0.00,0.00
2014-12-28 22:20:00,2,29922,74,0.01,2,2,0,2,22534,39032,5126,28908,71,78,3,74,0.00,0.05,0.02,0.00
2014-12-28 22:30:00,2,32238,74,0.03,2,2,0,2,9910,49699,11822,32976,71,78,3,74,0.00,0.30,0.09,0.00
2014-12-28 22:40:00,2,38502,23,0.00,2,2,0,2,30397,50000,6149,37301,0,78,35,0,0.00,0.00,0.00,0.00
2014-12-28 22:50:00,2,49463,0,0.00,2,2,0,2,44634,50000,1610,50000,0,0,0,0,0.00,0.00,0.00,0.00
2014-12-28 23:00:00,2,47897,0,0.00,2,2,0,2,40443,50000,3674,50000,0,0,0,0,0.00,0.00,0.00,0.00
2014-12-28 23:10:00,2,49646,0,0.00,2,2,0,2,46465,50000,1060,50000,0,0,0,0,0.00,0.00,0.00,0.00
2014-12-28 23:20:00,2,49705,0,0.00,2,2,0,2,48473,50000,590,50000,0,0,0,0,0.00,0.00,0.00,0.00
2014-12-28 23:30:00,2,33436,21,0.01,2,2,0,2,11234,50000,13027,37730,0,71,33,0,0.00,0.10,0.03,0.00
2014-12-28 23:40:00,2,44634,14,0.00,2,2,0,2,30552,50000,6943,48808,0,71,28,0,0.00,0.00,0.00,0.00
2014-12-28 23:50:00,2,50000,0,0.00,2,2,0,2,50000,50000,0,50000,0,0,0,0,0.00,0.00,0.00,0.00
